Location: Wawayanda State Park
(41.1833°N, 74.4333°W)
Time: 02:04:07
(UTC-04:00)

Landsat 7 - Visible Passes

Search period start: 23 August 2017 00:00
Search period end: 02 September 2017 00:00
Orbit: 702 x 703 km, 98.2° (Epoch: 22 August)

Date Brightness Start Highest point End Pass type
(mag) Time Alt. Az. Time Alt. Az. Time Alt. Az.
23 Aug 5.9 21:10:03 11° ENE 21:10:46 12° ENE 21:12:23 10° NE visible
23 Aug 4.5 22:48:56 53° NNW 22:48:56 53° NNW 22:52:36 10° NNW visible
24 Aug 5.0 21:53:25 28° ENE 21:53:25 28° ENE 21:57:07 10° N visible
24 Aug 5.8 23:32:18 24° WNW 23:32:18 24° WNW 23:34:54 10° NW visible
25 Aug 4.5 22:36:48 50° N 22:36:48 50° N 22:40:23 10° N visible
26 Aug 5.3 21:41:16 22° ENE 21:41:16 22° ENE 21:44:35 10° NNE visible
26 Aug 5.6 23:20:10 29° NW 23:20:10 29° NW 23:22:55 10° NNW visible
27 Aug 4.6 22:24:39 43° NNE 22:24:39 43° NNE 22:28:06 10° N visible
28 Aug 6.6 00:03:32 12° WNW 00:03:32 12° WNW 00:04:15 10° NW visible
28 Aug 5.6 21:29:08 17° ENE 21:29:08 17° ENE 21:31:57 10° NNE visible
28 Aug 5.4 23:08:02 33° NW 23:08:02 33° NW 23:10:51 10° NNW visible
29 Aug 4.9 22:12:31 35° NNE 22:12:31 35° NNE 22:15:46 10° N visible
29 Aug 6.4 23:51:24 15° WNW 23:51:24 15° WNW 23:52:40 10° NW visible
30 Aug 5.8 21:17:00 13° ENE 21:17:00 13° ENE 21:19:03 10° NNE visible
30 Aug 5.2 22:55:54 35° NNW 22:55:54 35° NNW 22:58:43 10° NNW visible
31 Aug 5.1 22:00:23 28° NE 22:00:23 28° NE 22:03:22 10° N visible
31 Aug 6.3 23:39:16 18° NW 23:39:16 18° NW 23:40:52 10° NW visible
01 Sep 6.1 21:04:53 10° ENE 21:04:53 10° ENE 21:05:08 10° NE visible
01 Sep 5.2 22:43:46 35° N 22:43:46 35° N 22:46:31 10° NNW visible
